Temp
7 8 9 9 9 9 9 10 10 10 10 10 11 12 12 13 14 15 13 14 15 7 10 11 12 11 10 10 10 10 10 8 7 8 8 8 8 9 10 10 10 11 10 9 8 9 10 11 12 13 13 11 11 11
7 7 8 9 10 9 9 10 10 10 10 10 11 11 12 12 13 14 14 14 15 12 11 11 13 13 14 13 10 7 11 9 8 7 6 5 8 6 8 12 9 11 11 11 11 12 12 11 13 12 11 9 9 8
6 7 8 8 9 9 9 9 10 10 10 10 10 11 11 12 13 14 13 14 14 5 8 11 11 12 13 14 14 11 6 9 8 8 6 6 9 7 9 8 9 10 10 10 10 12 13 12 13 9 9 7 6 6
7 7 7 8 8 9 9 9 10 10 10 10 10 10 11 11 12 13 13 13 13 6 6 9 10 12 12 13 13 13 11 8 6 5 5 6 8 9 8 10 10 11 10 10 10 12 12 11 9 8 6 6 6 7
6 7 6 7 8 8 9 9 9 10 10 10 10 10 10 11 11 12 12 12 12 12 7 6 9 10 11 11 12 12 11 7 7 6 6 8 7 7 7 7 8 10 11 10 11 13 11 10 7 7 6 7 7 6
6 6 6 6 7 8 9 9 9 9 10 10 10 10 10 10 10 11 8 11 11 12 6 7 7 7 8 9 10 9 9 7 7 7 6 7 8 9 8 8 10 11 12 12 12 11 9 7 6 7 7 7 7 6
5 6 6 6 6 6 7 9 9 9 9 9 9 9 9 9 9 10 9 11 10 12 5 7 7 5 6 6 5 6 6 7 8 7 6 7 7 8 6 9 11 10 10 10 9 9 7 7 7 7 7 6 6 5
5 5 6 6 6 6 6 7 9 9 9 9 9 9 9 9 9 9 10 10 10 10 6 7 7 5 6 5 5 3 5 5 6 7 5 6 6 5 8 8 7 7 8 7 7 7 7 6 6 7 6 5 5 5
5 5 5 6 6 6 6 6 7 9 9 9 9 8 7 8 7 7 9 9 9 9 7 5 8 8 5 5 3 3 4 6 5 5 5 6 6 8 7 6 5 5 6 6 6 6 6 6 6 6 6 5 5 5
5 5 5 5 6 7 6 5 6 7 8 8 7 6 4 5 6 7 7 5 4 3 4 5 4 7 7 4 5 5 4 6 7 6 5 6 7 6 5 5 5 5 6 6 6 6 5 5 4 4 4 4 3 3
4 4 5 5 5 6 6 5 5 6 6 6 4 3 4 5 5 4 4 5 4 5 4 4 4 6 4 6 6 4 5 5 6 5 6 6 6 6 5 4 5 5 5 5 5 5 4 3 3 3 3 2 1 1
4 4 4 4 5 5 5 6 5 6 5 5 5 5 5 4 4 5 5 4 5 6 4 4 4 4 3 4 5 4 5 4 5 2 4 6 5 5 5 5 4 4 4 4 4 3 3 2 2 1 1 1 1 1
3 4 4 4 4 5 5 5 6 5 5 5 4 3 4 3 6 6 6 6 5 4 3 3 4 3 3 3 4 4 4 4 1 3 4 4 4 5 5 4 4 4 4 3 2 3 3 2 2 1 -0 0 0 -1
3 4 4 4 4 5 5 5 5 6 6 3 4 5 4 5 5 4 4 3 2 3 3 3 3 3 2 3 2 4 2 1 4 3 3 3 4 4 3 3 3 4 1 -0 1 1 1 0 -0 1 0 -0 -1 -2
3 3 4 4 5 4 4 5 6 6 5 2 3 3 3 1 2 2 2 3 2 2 2 3 2 2 2 2 2 2 3 3 3 3 2 2 3 3 3 3 3 -0 -0 -0 1 0 0 0 -1 -1 -0 -1 -1 -2
3 3 4 5 5 4 5 6 6 6 1 1 -0 1 0 1 1 2 2 3 1 1 1 1 1 2 2 1 2 2 2 2 2 -0 -0 1 2 2 2 2 2 1 1 0 0 0 -0 -0 -1 -1 -1 -1 -0 -1
3 3 4 4 4 4 5 6 5 -0 0 -2 -2 -2 -2 -1 1 1 2 2 2 2 2 1 2 3 -0 0 1 1 -0 0 -1 -0 -1 0 2 2 2 1 1 1 0 0 0 0 -0 0 -1 -2 -3 -1 -1 -2
3 4 4 4 4 4 4 3 0 0 -0 -2 -2 -1 -1 -1 -2 -2 -1 -1 1 1 0 2 -1 -1 -1 0 0 -1 -2 -2 -2 -1 1 0 2 2 1 0 1 1 0 0 1 -0 -1 -2 -2 -2 -2 -2 -2 -2
3 4 4 4 4 4 1 0 0 -1 -3 -4 -4 -3 -3 -2 -3 -3 -3 -2 -0 -0 -1 -1 -2 -0 -0 -2 -1 -3 -4 -3 1 1 0 2 2 1 1 1 1 0 0 0 -0 -1 -2 -2 -2 -2 -2 -3 -2 -2
3 2 3 3 5 3 -1 -3 -0 -1 -1 -2 -4 -3 -3 -3 -3 -2 -1 -0 1 2 2 1 -0 -1 -1 -1 -2 -1 -1 -2 -2 -1 0 -1 1 1 0 1 0 0 -0 -0 -1 -1 -1 -2 -2 -1 -2 -3 -2 -2
1 1 1 2 2 2 -2 -4 -3 -3 -3 -2 -4 -3 -4 -3 -2 -2 -1 -1 0 1 0 -1 -2 -1 -1 0 1 1 -0 -1 -1 -1 -0 0 0 0 0 0 -0 -1 -2 -2 -3 -3 -3 -3 -2 -2 -2 -3 -2 -2
-0 1 0 0 -1 -1 -3 -4 -3 -5 -4 -5 -5 -5 -7 -7 -3 -3 -3 -1 -0 -1 -1 -2 -0 -0 -0 -0 1 1 1 1 -0 -1 -1 -1 -2 -1 -2 -2 -2 -2 -2 -2 -2 -3 -3 -2 -2 -3 -3 -3 -2 -2
1 2 0 -1 -2 -4 -4 -3 -5 -5 -4 -5 -7 -5 -7 -8 -7 -4 -1 0 -1 -2 -1 -1 1 2 1 1 1 1 1 -0 -1 -1 -1 -2 -2 -2 -2 -2 -1 -3 -4 -2 -0 -2 -3 -2 -2 -2 -2 -2 -2 -2
3 -1 -3 -5 -7 -5 -7 -7 -5 -6 -8 -7 -7 -4 -6 -7 -5 -3 -3 -5 -3 -4 -3 -0 -0 -1 -1 -1 -2 -0 2 1 1 0 1 -1 -3 -1 0 0 1 -0 -0 -1 -2 -2 -2 -3 -3 -2 -3 -3 -3 -3
-1 -2 -5 -4 -6 -6 -7 -2 -2 -1 -5 -9 -5 -6 -8 -8 -6 -4 -3 -4 -6 -6 -5 -3 -4 -3 -2 -3 -3 0 3 2 0 -1 1 1 -0 -2 -2 -1 -1 -1 -1 -2 -2 -3 -3 -3 -3 -3 -3 -3 -4 -3
-4 -3 -6 -9 -7 -6 -8 -4 -3 -3 -7 -5 -5 -10 -13 -10 -7 -4 -4 -5 -6 -6 -6 -5 -4 -4 -4 -3 -2 -1 3 2 0 -2 -0 -1 -1 -3 -3 -3 -4 -2 -3 -3 -4 -4 -4 -4 -4 -4 -4 -4 -4 -4
-4 -2 -2 -6 -6 -8 -9 -11 -10 -11 -7 -6 -9 -11 -10 -5 -7 -4 -5 -5 -4 1 3 4 3 1 -0 2 2 1 0 0 -1 -2 -2 -2 -3 -2 -3 -3 -3 -3 -4 -4 -4 -4 -5 -5 -4 -4 -5 -5 -5 -5
-7 -8 -4 -3 -5 -8 -10 -12 -11 -7 -8 -7 -9 -6 -4 -5 -3 -4 -5 -4 -4 -2 -1 -1 -1 -2 -2 -2 -2 -1 -1 -1 -2 -3 -2 -2 -3 -4 -4 -4 -4 -4 -4 -4 -5 -5 -5 -5 -5 -5 -5 -6 -6 -6
-4 -8 -7 -3 -6 -6 -9 -6 -6 -6 -5 -6 -6 -7 -5 -5 -9 -10 -9 -9 -7 -7 -7 -6 -5 -5 -4 -4 -4 -4 -4 -4 -3 -3 -3 -3 -3 -5 -6 -6 -6 -5 -5 -5 -5 -5 -5 -6 -5 -5 -6 -6 -6 -7
-4 -7 -9 -9 -8 -6 -5 -6 -7 -11 -8 -6 -7 -6 -6 -10 -12 -12 -11 -11 -11 -12 -11 -11 -10 -10 -9 -9 -9 -7 -8 -7 -7 -7 -5 -6 -8 -8 -8 -7 -7 -7 -7 -7 -7 -7 -6 -6 -6 -6 -7 -8 -9 -9
-10 -7 -8 -10 -9 -9 -11 -14 -11 -12 -15 -12 -15 -7 -7 -11 -12 -12 -13 -13 -13 -13 -13 -13 -13 -12 -12 -11 -11 -9 -8 -10 -10 -10 -9 -9 -9 -9 -9 -9 -8 -8 -8 -8 -9 -8 -8 -8 -9 -10 -11 -12 -13 -13
-6 -7 -10 -6 -8 -13 -15 -11 -14 -13 -16 -14 -11 -17 -15 -11 -13 -13 -14 -14 -14 -14 -14 -14 -14 -13 -12 -11 -11 -11 -11 -11 -11 -11 -11 -11 -11 -11 -11 -10 -9 -9 -9 -9 -9 -10 -10 -11 -11 -13 -14 -14 -15 -15
-11 -10 -10 -13 -11 -9 -14 -13 -14 -12 -15 -15 -16 -12 -17 -15 -15 -14 -14 -14 -15 -15 -16 -15 -13 -12 -12 -12 -12 -12 -12 -12 -12 -12 -12 -12 -12 -12 -11 -11 -11 -11 -11 -11 -11 -11 -12 -13 -14 -15 -16 -16 -17 -17
Height
760 763 768 773 778 783 787 790 793 796 799 800 801 802 802 802 803 802 805 805 806 820 824 822 823 829 835 839 845 850 853 858 867 870 874 876 878 870 870 866 870 863 867 877 882 878 861 837 838 839 834 835 832 831
762 764 765 769 775 780 785 788 791 795 798 800 801 802 803 803 804 804 806 808 808 811 822 822 823 824 825 827 835 847 844 849 853 866 877 883 875 884 870 858 863 859 853 853 856 845 834 835 831 831 833 836 835 833
765 765 766 767 771 777 782 786 789 793 797 799 801 802 804 805 806 806 807 809 810 817 824 823 824 824 825 826 828 837 848 843 847 848 861 868 864 867 865 867 859 850 850 851 848 832 829 829 827 832 834 836 837 836
766 764 764 765 767 772 777 783 787 791 794 798 800 802 804 806 807 807 808 810 812 822 835 828 823 823 824 825 826 828 831 838 844 850 858 862 860 852 857 845 846 842 847 843 840 828 825 827 830 832 833 833 835 836
764 764 764 765 766 768 773 778 783 788 792 796 799 802 804 806 808 809 810 812 813 817 832 831 823 824 823 824 825 827 830 836 844 851 855 852 851 854 853 853 849 838 836 838 826 822 826 829 833 832 835 834 834 833
766 765 766 764 764 765 768 774 780 785 790 794 798 802 804 806 808 810 813 813 813 815 825 834 827 824 824 824 825 827 829 833 837 841 847 843 838 841 847 842 832 826 825 823 823 825 829 833 834 835 835 834 833 831
768 768 766 766 765 763 764 769 775 780 786 791 796 799 803 806 808 810 813 811 812 816 823 831 828 827 826 827 829 831 831 831 832 837 840 838 836 837 842 832 824 827 826 824 824 824 832 835 835 835 834 832 830 828
767 769 768 767 766 765 762 763 769 776 782 788 793 797 801 803 806 809 809 811 814 816 820 830 829 831 827 831 832 833 833 833 833 834 839 836 837 839 830 826 830 829 828 828 829 827 832 836 836 834 831 829 826 824
770 769 768 768 768 767 765 762 764 770 777 784 790 795 798 800 802 803 808 811 812 816 819 826 823 825 827 831 834 835 835 833 838 838 838 837 834 828 831 834 833 831 829 834 834 835 835 835 833 831 830 827 825 821
770 769 770 769 770 769 767 764 763 766 772 778 785 791 798 798 801 805 808 811 813 813 816 819 822 822 825 832 834 835 837 837 833 838 838 834 829 832 835 835 834 833 831 834 835 834 833 833 833 831 828 825 823 820
772 772 772 772 772 771 770 768 767 768 772 777 783 792 797 800 802 805 813 812 817 817 819 820 821 820 826 827 830 837 834 838 834 838 835 830 826 830 834 835 834 833 833 834 835 834 834 833 830 827 824 821 819 815
773 774 773 773 774 773 772 774 773 774 774 779 782 792 798 800 805 809 810 816 814 813 821 820 822 823 828 828 830 838 836 841 836 847 840 830 831 832 832 833 834 834 833 833 833 832 830 828 825 823 820 817 813 809
772 774 775 774 774 774 774 776 777 779 779 782 787 796 798 805 802 804 804 810 813 819 821 822 824 827 829 831 834 837 839 841 850 844 834 832 830 831 833 834 834 833 832 831 829 827 826 823 821 819 815 811 808 803
772 774 774 775 776 776 777 777 780 781 782 787 791 795 799 803 805 806 811 813 818 818 820 823 826 828 834 834 839 836 846 848 840 842 833 832 828 831 832 833 832 831 830 828 826 824 823 820 817 812 809 805 802 797
770 774 775 776 777 778 778 781 780 782 784 792 794 801 804 811 810 811 812 813 817 819 821 824 829 831 837 839 840 845 842 838 837 830 831 829 828 830 831 830 829 827 825 823 821 820 818 815 810 807 803 799 796 791
769 772 773 774 778 779 781 782 781 783 789 795 803 809 812 810 814 813 812 813 816 819 823 825 833 831 835 839 840 839 841 839 828 833 830 829 827 827 827 826 824 822 820 818 816 816 814 809 806 803 797 794 789 786
766 765 770 774 778 781 783 784 784 791 798 802 810 809 810 813 811 812 812 814 816 820 823 828 831 827 842 842 839 837 837 829 827 825 825 826 825 824 822 821 819 817 816 813 811 810 807 804 801 798 793 787 785 781
763 767 771 776 779 782 785 788 791 797 802 808 811 810 810 812 816 816 815 816 817 821 824 826 833 842 841 838 831 828 826 825 824 822 821 821 820 818 818 815 813 813 811 808 806 804 802 800 798 793 789 785 781 778
762 766 772 776 779 784 790 796 796 803 809 811 813 813 812 813 816 816 816 818 819 820 825 830 838 833 829 830 826 827 827 824 819 817 816 816 815 814 812 811 809 807 804 803 800 799 797 796 794 790 786 783 779 774
762 765 771 776 781 784 794 801 799 802 808 810 813 814 816 818 820 819 820 820 820 820 821 822 824 821 822 818 817 817 816 815 816 814 810 810 809 809 808 805 802 800 799 796 794 793 792 789 788 785 782 778 774 769
763 769 773 778 782 787 795 802 805 808 809 812 816 816 820 820 821 822 822 823 822 820 820 815 813 808 808 810 811 812 812 811 810 809 806 802 801 802 801 799 796 794 793 791 789 788 787 785 782 779 776 773 770 766
767 770 774 781 788 793 799 804 806 809 812 817 818 819 827 830 823 823 825 823 819 815 810 806 804 803 805 806 805 806 805 804 803 802 799 798 797 796 793 791 790 787 786 785 784 782 780 779 777 775 772 767 764 760
769 774 780 786 794 801 811 806 812 813 819 823 825 824 830 832 829 825 821 816 812 803 801 802 799 799 799 799 799 798 799 799 798 795 793 792 790 788 785 783 782 782 780 778 779 777 775 774 772 769 766 762 759 754
772 780 789 797 804 812 812 817 814 819 825 828 831 826 828 828 826 824 820 819 804 799 798 795 796 796 796 796 796 794 792 792 790 788 787 786 784 780 777 775 774 774 773 773 772 771 770 769 767 764 761 758 754 750
781 795 800 806 808 814 823 809 813 811 824 836 826 828 830 829 830 823 817 809 801 795 792 792 793 795 796 793 791 788 787 787 785 783 779 780 778 774 771 769 769 770 770 768 767 766 765 764 762 759 756 752 749 745
797 799 808 816 815 814 825 817 815 816 829 825 824 834 837 835 832 819 810 799 797 793 791 791 791 791 790 788 786 784 783 783 781 779 774 774 773 771 768 767 765 765 765 764 764 763 762 760 757 754 751 748 745 741
800 798 798 802 806 813 823 828 826 831 826 825 829 836 836 829 830 807 794 789 789 787 787 787 786 785 783 780 779 779 778 776 775 772 770 768 767 767 765 764 763 763 762 762 761 760 758 755 753 751 748 745 742 739
799 801 800 800 805 811 821 830 828 820 819 815 822 821 816 815 806 795 793 793 792 789 787 786 784 782 780 777 776 774 771 770 768 767 765 765 764 763 762 762 761 760 759 758 757 756 754 752 750 748 745 743 740 736
794 799 802 801 807 807 812 808 808 803 798 804 808 813 805 797 799 799 796 795 792 790 788 785 782 780 777 775 773 770 768 766 764 761 760 760 760 762 761 760 759 758 757 755 754 753 751 749 747 745 743 741 738 735
794 797 805 809 810 805 795 793 795 791 791 792 792 792 791 798 804 802 799 796 794 794 793 790 787 783 781 778 774 771 769 767 764 763 760 761 762 762 760 758 757 756 755 753 751 749 747 746 744 742 740 738 736 734
798 797 802 806 805 796 792 791 790 790 790 791 789 790 789 798 802 804 802 801 799 797 794 790 787 785 782 779 777 773 771 770 768 767 766 764 763 762 760 758 756 755 752 751 749 747 746 744 742 741 739 738 737 735
796 799 807 800 799 796 794 794 797 797 798 795 791 794 794 795 806 807 808 804 801 800 798 795 791 787 785 782 780 778 777 775 772 770 767 766 764 762 760 758 755 753 751 749 748 747 745 744 742 741 740 740 739 738
805 803 803 809 803 798 801 799 804 800 801 801 801 795 803 805 813 814 812 809 808 806 801 797 794 792 789 786 784 781 779 777 774 771 768 766 764 762 760 757 755 752 751 749 748 747 746 745 744 743 742 742 741 740
Wind_Speed
9 4 20 21 20 19 18 16 14 12 10 7 5 3 4 6 6 5 9 9 3 3 2 3 4 4 3 2 4 4 3 2 2 3 3 3 2 3 2 2 3 3 3 4 3 4 7 2 2 2 2 7 9 10
6 7 7 22 22 20 20 18 16 14 11 9 6 4 3 5 5 5 5 8 9 8 3 3 3 4 2 7 5 0 3 4 4 4 1 3 3 2 4 3 2 4 6 3 8 6 2 3 8 6 4 3 4 2
8 7 3 12 28 25 23 20 18 16 13 11 9 6 4 3 5 4 8 6 5 3 3 2 1 2 5 4 4 4 2 3 3 2 4 2 3 4 4 6 2 3 4 4 1 7 9 10 9 2 3 2 2 3
9 13 2 2 16 28 26 23 21 18 15 13 10 8 6 4 3 5 5 7 8 7 3 3 3 1 3 5 7 4 8 8 7 2 3 3 2 4 4 3 5 5 3 4 6 15 13 7 1 2 5 4 4 6
10 13 8 3 3 21 28 28 24 22 18 15 13 11 8 6 4 4 5 4 4 3 4 3 7 1 3 4 7 8 15 5 2 2 2 3 2 2 1 1 3 4 7 4 7 9 7 4 4 5 2 2 4 6
8 9 12 12 2 8 27 29 28 25 24 19 16 13 11 9 7 3 3 8 8 6 4 1 2 4 6 4 5 6 10 3 3 4 3 3 3 3 2 3 4 10 10 10 8 4 3 4 5 1 2 4 8 9
6 6 9 8 11 2 14 30 30 27 25 21 18 15 14 11 10 3 3 2 12 8 3 2 3 3 3 4 3 3 2 1 2 2 3 2 3 4 2 3 1 4 5 5 3 5 6 3 3 2 5 7 10 11
5 5 5 7 11 10 3 18 28 29 27 23 20 17 15 17 15 7 4 10 17 6 4 2 3 2 1 1 1 2 1 1 2 0 1 2 1 1 3 0 6 6 4 9 11 12 11 6 5 6 7 8 9 9
4 3 4 4 6 9 8 2 19 29 30 27 20 17 12 6 6 6 14 19 11 3 4 3 5 3 2 2 2 2 1 2 1 1 1 1 1 4 2 3 4 6 3 9 9 7 3 2 6 8 9 11 10 11
5 4 4 3 3 3 8 5 5 17 27 28 19 4 2 4 14 17 4 2 3 2 2 2 1 2 1 1 1 1 2 1 1 1 2 1 2 3 2 2 3 6 9 5 3 4 4 7 9 9 10 13 13 15
6 4 2 2 2 2 6 4 10 23 28 4 3 2 8 8 3 4 2 2 1 1 1 1 2 3 3 2 2 1 1 1 1 0 2 2 2 4 4 3 2 5 5 4 2 3 6 7 9 10 11 14 15 18
7 5 2 4 2 4 11 9 12 5 5 9 16 10 5 1 3 3 2 2 1 2 1 2 1 2 1 1 2 1 2 0 3 0 1 2 1 3 4 3 2 3 3 4 5 7 10 11 12 13 14 16 19 23
9 7 6 8 6 6 15 18 10 22 21 8 5 4 2 2 3 3 4 2 2 3 3 2 2 2 2 2 3 2 3 3 1 1 3 2 3 4 3 2 1 1 6 8 10 14 15 17 21 20 18 23 25 23
14 11 8 10 8 4 14 14 21 6 3 3 3 4 2 2 1 2 2 3 1 2 4 2 2 2 1 2 1 3 1 1 2 2 4 2 4 4 3 2 1 5 11 11 12 15 16 18 20 24 24 24 23 23
17 15 12 12 9 12 17 12 7 5 3 3 3 3 2 1 2 2 2 3 1 3 3 3 3 2 2 2 1 2 2 3 4 4 2 3 3 2 3 3 5 5 10 11 13 13 19 21 19 22 25 24 24 25
21 16 14 16 12 14 9 7 5 3 4 3 3 3 1 3 1 1 1 2 2 2 2 2 3 2 1 3 3 4 4 5 3 2 2 2 3 3 4 7 12 14 15 14 15 18 19 20 19 20 27 26 25 25
21 4 19 21 17 15 8 3 3 5 3 3 2 2 3 2 3 2 2 2 7 2 2 2 3 3 3 1 3 4 5 3 3 3 2 3 4 5 10 13 16 17 16 16 18 20 20 22 23 21 17 24 25 24
5 17 26 22 19 13 6 6 4 3 4 1 2 1 2 1 2 1 1 1 2 2 2 2 4 2 4 4 3 3 4 2 3 2 2 4 10 15 16 14 16 17 17 18 20 20 19 18 16 16 19 21 22 22
19 28 28 25 16 5 3 3 3 3 1 1 2 1 2 1 3 2 2 1 2 4 4 2 2 3 3 3 4 2 2 3 3 3 3 13 18 19 19 18 20 19 18 18 16 13 14 16 16 18 20 19 18 20
30 30 29 24 14 4 4 2 2 3 2 1 2 2 2 2 1 1 1 1 2 1 1 3 4 3 4 3 4 3 3 5 3 4 6 5 14 16 16 17 15 17 18 19 19 16 18 17 14 16 18 18 18 19
28 22 20 17 6 7 4 1 3 1 2 2 1 1 2 1 1 1 2 1 1 2 3 3 4 4 10 8 8 11 11 9 5 4 5 7 10 15 17 20 22 18 13 13 11 13 14 15 18 19 18 18 19 21
12 13 9 7 4 4 4 5 3 1 2 1 2 1 2 2 2 1 1 2 3 3 4 3 3 3 4 3 12 13 14 13 14 15 18 19 6 8 10 15 12 11 13 16 15 14 16 18 16 18 19 20 20 20
14 8 5 5 4 5 1 3 4 3 3 1 2 2 2 1 2 1 2 4 3 6 9 6 8 12 10 16 16 16 15 14 11 12 15 15 17 20 19 21 21 16 11 15 15 16 17 17 17 20 20 19 20 19
9 5 4 3 4 1 2 2 1 2 2 3 2 1 2 2 1 2 3 3 3 2 3 7 6 3 6 6 3 9 9 7 10 13 15 14 11 17 21 22 20 17 15 15 15 16 16 18 21 18 20 21 21 20
6 4 5 3 1 4 3 3 2 2 1 1 2 3 2 0 1 2 3 3 2 2 2 4 3 5 3 3 7 12 9 11 12 9 19 17 19 22 19 21 20 15 9 12 15 16 16 14 15 19 20 19 19 20
5 0 4 4 0 4 4 4 5 4 2 2 4 1 2 2 1 5 3 3 3 3 3 4 3 2 3 12 5 10 16 12 12 10 21 16 13 14 11 7 5 7 7 7 9 11 14 17 15 18 19 19 20 21
4 3 2 2 3 4 3 2 2 3 4 5 3 2 3 2 5 4 3 4 3 3 5 9 11 13 11 18 15 14 17 16 16 18 21 18 13 12 11 9 7 6 7 8 8 12 14 14 15 15 16 17 17 18
3 3 6 4 1 1 4 2 4 5 4 3 4 3 6 8 5 2 1 10 15 18 18 16 14 13 15 18 20 21 23 20 15 16 16 12 6 6 3 4 6 7 7 7 11 13 12 14 16 16 13 12 14 16
1 1 4 4 1 2 4 5 5 3 4 4 5 3 4 3 3 9 10 19 17 13 13 16 16 20 16 14 12 12 12 11 9 8 8 3 2 2 10 10 9 9 10 10 10 11 13 14 11 11 10 11 12 12
2 2 3 2 5 5 4 5 3 2 4 3 2 2 1 4 8 16 19 22 21 16 16 15 17 16 13 14 15 13 11 11 11 7 3 2 4 7 9 10 11 11 12 11 11 12 11 10 11 11 11 11 13 12
1 2 2 1 4 3 3 3 2 1 1 2 1 4 3 4 5 19 26 21 20 20 20 20 20 19 16 16 13 10 6 14 13 11 9 8 7 9 10 11 12 12 12 11 11 11 10 9 9 9 9 10 11 12
1 2 3 2 4 3 4 2 1 1 3 3 3 2 3 3 3 5 19 23 19 20 21 19 17 19 18 13 12 12 11 11 14 13 12 12 11 12 13 13 12 11 10 9 8 7 7 7 8 9 9 10 11 11
1 0 0 2 4 5 3 3 4 5 3 2 2 1 2 3 3 2 12 21 17 17 22 23 16 12 11 14 17 16 15 15 14 13 12 12 12 13 13 13 13 11 9 8 7 6 6 7 8 8 9 9 9 9
Wind_Direction
48 192 213 207 212 211 209 206 200 196 192 184 160 112 82 68 71 99 77 56 76 98 265 181 149 125 98 99 140 179 82 8 66 91 147 193 193 212 178 219 188 233 186 218 173 227 278 196 250 205 306 325 293 305
30 26 219 208 209 211 212 210 206 203 200 193 181 154 95 78 84 106 99 76 70 84 156 153 125 103 124 173 133 27 162 159 167 97 164 128 199 183 182 226 203 264 196 195 192 227 251 226 265 299 337 281 341 7
34 2 308 219 212 212 212 210 207 205 204 202 196 182 152 101 75 105 110 103 81 72 20 81 129 127 200 192 164 123 273 153 163 130 150 149 212 139 181 228 207 265 170 217 246 241 266 278 292 75 92 85 119 166
27 13 230 255 209 208 210 212 209 207 204 205 205 199 187 163 123 113 113 104 89 95 107 276 346 117 171 208 203 188 138 111 99 96 123 152 179 183 209 239 205 226 150 225 252 287 282 267 143 107 108 123 225 262
30 26 27 219 237 212 211 211 212 209 207 206 206 202 191 186 166 128 118 122 120 127 177 255 308 339 283 224 186 165 148 122 137 114 126 215 178 151 204 12 219 178 226 215 261 279 303 13 77 100 170 223 293 288
17 25 19 22 294 231 210 210 210 208 209 206 207 204 197 191 175 140 18 208 178 128 94 24 329 12 6 41 133 153 165 124 151 150 198 227 228 167 167 229 227 228 246 258 276 360 74 80 116 164 358 327 316 324
5 13 19 19 19 338 215 208 206 207 208 207 208 204 203 198 185 185 187 149 167 130 86 352 315 319 13 49 46 48 45 134 153 178 198 199 200 157 186 258 193 335 336 334 13 142 101 37 80 23 342 325 315 304
357 357 17 25 25 14 11 207 202 207 204 204 203 207 197 195 201 209 210 144 151 114 95 145 262 10 83 84 91 351 96 25 27 325 34 194 39 132 239 214 343 326 6 64 67 69 83 74 22 334 313 303 309 307
306 326 8 17 19 12 15 55 201 204 205 200 197 188 167 178 178 175 177 164 178 165 173 142 153 219 99 75 46 41 41 91 20 225 247 120 182 216 1 332 2 351 93 118 85 82 62 350 303 319 328 320 295 295
272 287 302 308 308 10 10 40 152 192 193 179 148 126 83 156 130 121 123 73 24 334 54 130 12 145 138 117 61 79 31 133 215 271 312 215 237 113 65 101 116 109 108 123 53 9 346 335 327 313 304 304 291 288
247 254 272 270 243 196 93 47 125 144 137 132 103 87 113 128 104 47 55 113 156 122 54 56 136 129 358 115 135 42 168 108 236 258 246 224 227 155 149 149 117 81 82 62 16 331 327 306 304 315 317 313 306 302
231 230 220 173 159 148 149 136 145 100 73 99 104 107 83 58 74 131 130 102 203 152 114 124 120 96 74 63 106 84 150 165 245 333 244 248 203 154 155 127 100 87 68 348 328 315 313 313 320 315 312 312 311 308
231 224 202 177 158 124 161 164 148 136 118 118 87 97 162 13 105 180 144 159 145 160 154 153 97 93 72 53 76 125 167 210 71 205 238 228 163 145 138 143 166 304 321 319 321 323 322 319 319 316 306 312 315 308
225 215 190 174 177 156 164 147 136 110 72 66 111 111 68 130 189 157 135 133 145 114 121 100 81 88 53 89 109 142 117 145 197 235 232 194 178 164 188 206 289 302 306 309 306 308 308 309 306 315 317 320 316 302
212 197 177 163 165 140 139 143 117 90 64 93 96 116 160 139 70 93 124 111 66 117 117 106 78 84 59 93 41 102 148 238 217 232 217 195 192 204 242 258 278 273 294 301 302 300 302 308 306 307 317 319 316 316
193 179 179 161 167 149 119 118 80 78 64 75 74 95 122 77 117 116 96 110 143 114 87 66 109 104 147 130 152 192 176 224 243 212 213 192 204 216 247 267 280 290 293 293 297 298 299 303 304 304 311 314 322 320
185 168 170 166 164 177 170 57 50 45 102 59 67 84 108 91 150 153 137 136 145 108 147 122 130 192 96 125 222 189 206 216 201 207 212 213 213 253 270 283 291 296 294 296 297 299 302 311 317 310 301 308 312 315
195 172 167 167 150 129 69 40 66 57 66 93 139 175 99 107 128 34 89 82 98 113 129 160 121 132 196 199 238 231 225 246 228 217 223 239 249 267 276 276 285 286 286 292 299 304 308 318 316 309 307 305 311 316
171 168 163 156 141 104 89 47 24 99 117 124 97 62 78 86 62 48 64 104 57 116 117 73 110 207 226 213 220 233 232 221 222 236 229 248 260 269 275 279 280 284 286 291 295 293 299 305 300 299 303 305 299 304
157 159 158 151 152 90 72 8 35 93 116 154 80 103 84 68 72 59 77 152 129 141 173 206 216 213 196 214 198 206 208 212 210 273 280 243 259 270 267 270 272 282 290 295 296 295 302 303 298 301 308 295 297 303
130 119 121 141 66 66 88 99 45 111 126 86 57 89 83 62 82 103 154 78 203 207 239 224 217 237 228 241 242 238 250 239 228 221 266 289 277 251 261 273 280 284 280 287 287 289 290 283 299 310 307 296 297 305
117 115 93 72 88 54 74 28 113 85 72 123 66 48 84 103 176 204 167 188 234 236 217 211 227 234 250 227 250 256 266 272 271 263 265 268 277 273 261 269 282 274 280 277 283 284 290 302 302 304 301 287 302 303
105 88 70 54 76 45 295 8 68 12 106 263 31 54 331 359 223 222 229 230 249 236 227 240 258 272 260 284 288 284 281 270 254 257 269 268 272 278 276 278 276 256 260 277 294 291 290 303 302 302 303 302 304 297
91 62 61 64 70 63 47 30 65 78 61 60 86 297 272 206 201 195 246 242 247 250 211 235 253 281 295 268 251 266 272 251 263 280 289 284 274 282 289 281 272 263 259 287 293 291 294 296 308 306 312 310 305 300
80 10 84 33 67 94 66 130 134 172 132 171 120 276 265 38 125 234 236 262 264 264 271 295 274 221 220 258 277 260 258 250 260 263 295 297 290 293 294 295 287 273 285 285 284 293 303 309 305 306 307 303 299 299
79 330 123 176 237 114 162 138 185 177 138 167 229 318 20 91 82 251 228 231 229 220 223 216 213 227 244 225 234 256 284 309 294 267 291 303 301 278 280 289 292 304 310 295 296 304 306 308 304 309 309 310 309 310
116 165 138 89 113 113 85 47 72 117 165 197 204 126 96 158 242 254 275 226 227 238 308 308 281 253 253 266 268 282 303 302 286 284 296 300 287 293 289 287 295 301 306 305 304 311 307 309 307 312 317 321 324 325
164 152 152 172 99 68 130 113 156 202 219 184 109 176 184 196 228 238 307 14 345 329 317 312 313 310 303 299 303 307 304 302 291 292 289 290 299 318 321 328 326 320 317 312 316 314 313 313 311 317 317 324 330 352
159 162 105 149 136 209 207 181 208 224 178 156 168 217 233 211 36 3 350 356 357 358 356 348 349 341 335 333 334 333 327 315 284 261 249 240 237 307 342 344 341 339 335 328 320 323 321 321 324 325 322 330 338 346
214 158 99 145 161 217 238 176 214 231 202 187 186 331 338 80 44 37 29 24 21 8 356 350 350 355 347 349 338 347 15 23 30 17 356 29 12 353 354 354 350 346 341 336 335 334 336 336 337 341 348 355 8 18
112 125 77 136 226 245 239 313 298 259 28 230 280 188 224 131 101 37 32 26 19 14 5 356 350 357 346 339 338 340 9 30 35 36 39 36 20 13 8 2 354 347 346 341 338 337 341 348 0 13 30 40 41 46
132 185 146 213 269 295 9 37 350 324 330 1 301 21 36 77 58 36 14 18 16 11 358 351 349 345 14 52 50 46 39 24 22 18 14 12 9 5 1 357 355 354 354 352 352 358 10 28 44 52 58 57 53 49
54 44 68 321 331 338 324 53 22 332 351 325 309 73 86 105 124 3 16 24 20 3 356 357 357 12 21 32 30 25 22 18 10 4 5 1 355 354 356 359 1 2 7 12 23 31 43 52 61 61 58 55 51 46